Terminal Aerodrome Forecast
Issued by NWS Twin Cities, MN

Home | Current Version | Previous Version | Graphics & Text | Print | Product List | Glossary On
Versions: 1 2 3 4 5 6 7 8 9 10 11 12 13 14 15 16 17 18 19 20 21 22 23 24 25 26 27 28 29
000
FTUS43 KMPX 221550 AAB
TAFMSP
TAF AMD
KMSP 221550Z 2216/2318 34014G22KT P6SM SCT025 SCT150
      TEMPO 2216/2218 BKN020
     FM221800 32017G24KT P6SM SCT030 SCT250
     FM230000 35007KT P6SM FEW250
     FM231000 01004KT P6SM SKC=

USA.gov is the U.S. government's official web portal to all federal, state and local government web resources and services.